sat.trackr.live / text

‹ back to catalog

STARLINK-1595

NORAD 46159 · 2020-057AU

PAYLOAD ACTIVE UNKNOWN

§ Identity

Operator
Country
US
Launch date
2020-08-18
Launch site
AFETR
Launch vehicle
Mass (kg)
RCS (m²)

Purposes: comms

External: N2YO · Heavens-Above · Gunter

§ Orbital elements

Epoch: 2026-09-04T03:30:53.706816Z

Period
88.07 min
Inclination
53.0149°
Eccentricity
0.0010018
Mean motion
16.35061603 rev/d
Perigee alt
172.4 km
Apogee alt
185.5 km
Semi-major
6,557.1 km
B*
7.5757e-4
RAAN
128.5432°
Arg perigee
260.4974°
Mean anomaly
99.4938°
Rev number
33,571

§ Raw data

STARLINK-15951 46159U 20057AU  26247.14645494  .06016987  12205-4  75757-3 0  99922 46159  53.0149 128.5432 0010018 260.4974  99.4938 16.35061603335718

JSON: /api/v1/satellites/46159 · /tle

For live sub-satellite position, see the globe view (requires WebGL).

§ Visibility from observer

Set your observer location to see the next 7 days of passes ≥ 10°. The values pass through the URL so the page stays shareable.

No JS? Fill the form by hand. The geolocation button needs JavaScript.